This is the latest recevied weather packets stored in our database for station/object KF7BKV-1. If no packets are shown the sender has not sent any weather packets the latest 1 day(s).
| Time | Temp. | Humidity | Pressure | Rain* | Wind** | Luminosity | Snow |
|---|---|---|---|---|---|---|---|
| 1778114283 | 23.89° C | 32% | 1016.4 hPa | 0 mm | 2.68 m/s, 354° | - | - |
| 1778114223 | 23.89° C | 32% | 1016.4 hPa | 0 mm | 2.68 m/s, 354° | - | - |
| 1778113983 | 23.89° C | 31% | 1016.4 hPa | 0 mm | 3.13 m/s, 353° | - | - |
| 1778113563 | 23.89° C | 32% | 1016.3 hPa | 0 mm | 3.58 m/s, 334° | - | - |
| 1778113323 | 23.89° C | 31% | 1016.6 hPa | 0 mm | 3.13 m/s, 303° | - | - |
| 1778113143 | 23.89° C | 32% | 1016.5 hPa | 0 mm | 2.24 m/s, 283° | - | - |
| 1778112783 | 23.89° C | 32% | 1016.7 hPa | 0 mm | 2.24 m/s, 281° | - | - |
| 1778112604 | 23.89° C | 32% | 1016.7 hPa | 0 mm | 0.89 m/s, 347° | - | - |
| 1778105583 | 23.33° C | 29% | 1018.1 hPa | 0 mm | 3.13 m/s, 296° | - | - |
| 1778104143 | 22.22° C | 29% | 1018.6 hPa | 0 mm | 1.34 m/s, 310° | - | - |
| 1778102404 | 22.22° C | 29% | 1018.8 hPa | 0 mm | 4.47 m/s, 312° | - | - |
| 1778101744 | 22.22° C | 27% | 1018.6 hPa | 0 mm | 1.34 m/s, 351° | - | - |
| 1778095864 | 20° C | 27% | 1019.9 hPa | 0 mm | 0.89 m/s, 257° | - | - |
| 1778093763 | 19.44° C | 27% | 1020.4 hPa | 0 mm | 1.34 m/s, 276° | - | - |
| 1778090525 | 17.22° C | 28% | 1020.7 hPa | 0 mm | 3.58 m/s, 102° | - | - |
| 1778089623 | 16.67° C | 28% | 1020.9 hPa | 0 mm | 2.24 m/s, 107° | - | - |
| 1778088664 | 16.11° C | 29% | 1020.9 hPa | 0 mm | 2.24 m/s, 140° | - | - |
| 1778086444 | 15° C | 30% | 1020.9 hPa | 0 mm | 4.47 m/s, 110° | - | - |
| 1778085124 | 14.44° C | 31% | 1020.9 hPa | 0 mm | 2.68 m/s, 96° | - | - |
| 1778080924 | 12.22° C | 34% | 1021.2 hPa | 0 mm | 2.68 m/s, 23° | - | - |
| 1778080083 | 12.22° C | 34% | 1021.3 hPa | 0 mm | 3.58 m/s, 123° | - | - |
| 1778078764 | 11.67° C | 35% | 1020.9 hPa | 0 mm | 1.34 m/s, 151° | - | - |
| 1778076843 | 10.56° C | 39% | 1020.8 hPa | 0 mm | 1.79 m/s, 86° | - | - |
| 1778076784 | 10.56° C | 39% | 1020.8 hPa | 0 mm | 1.79 m/s, 86° | - | - |
| 1778076363 | 10.56° C | 40% | 1020.9 hPa | 0 mm | 3.13 m/s, 96° | - | - |
* Rain latest hour (hover to see other rain measurements)
** Current wind speed in m/s (hover to see current wind gust speed)